When you browse on this site, cookies collect data to enhance your experience and personalize the content and advertising you see.
Visit our Privacy Policy to learn more. By continuing to use the site, you agree to this use of cookies and data.
  • In Sweden
  • List of Countries
  • For 7 days
  • Water Temperature
  • Weather Map
  • Weather Widgets
  • user-avatar
    Login

    Hourly Weather Khandela

    Today, 26 February, Wednesday

    Time Temperature Precipitation Wind Pressure Humidity
    00:00 +16°C° 0 mm 1 mps 716 mmHg 47%
    01:00 +15°C° 0 mm 1 mps 716 mmHg 49%
    02:00 +15°C° 0 mm 1 mps 716 mmHg 51%
    03:00 +14°C° 0 mm 1 mps 716 mmHg 51%
    04:00 +14°C° 0 mm 1 mps 716 mmHg 51%
    05:00 +14°C° 0 mm 2 mps 715 mmHg 51%
    06:00 +16°C° 0 mm 2 mps 716 mmHg 46%
    07:00 +18°C° 0 mm 2 mps 717 mmHg 41%
    08:00 +20°C° 0 mm 2 mps 718 mmHg 36%
    09:00 +23°C° 0 mm 2 mps 718 mmHg 31%
    10:00 +25°C° 0 mm 2 mps 719 mmHg 27%
    11:00 +28°C° 0 mm 3 mps 719 mmHg 22%
    12:00 +29°C° 0 mm 3 mps 718 mmHg 20%
    13:00 +30°C° 0 mm 3 mps 717 mmHg 18%
    14:00 +30°C° 0 mm 3 mps 717 mmHg 16%
    15:00 +30°C° 0 mm 3 mps 717 mmHg 16%
    16:00 +29°C° 0 mm 3 mps 716 mmHg 17%
    17:00 +29°C° 0 mm 3 mps 716 mmHg 18%
    18:00 +26°C° 0 mm 3 mps 716 mmHg 22%
    19:00 +24°C° 0 mm 3 mps 717 mmHg 25%
    20:00 +20°C° 0 mm 2 mps 717 mmHg 28%
    21:00 +19°C° 0 mm 2 mps 717 mmHg 31%
    22:00 +19°C° 0 mm 2 mps 717 mmHg 33%
    23:00 +18°C° 0 mm 2 mps 717 mmHg 36%

    Tomorrow, 27 February, Thursday

    Time Temperature Precipitation Wind Pressure Humidity
    00:00 +18°C° 0 mm 2 mps 717 mmHg 38%
    01:00 +17°C° 0 mm 2 mps 717 mmHg 40%
    02:00 +16°C° 0 mm 2 mps 716 mmHg 42%
    03:00 +16°C° 0 mm 2 mps 716 mmHg 43%
    04:00 +16°C° 0 mm 2 mps 716 mmHg 44%
    05:00 +16°C° 0 mm 2 mps 716 mmHg 45%
    06:00 +17°C° 0 mm 2 mps 717 mmHg 42%
    07:00 +19°C° 0 mm 2 mps 717 mmHg 40%
    08:00 +20°C° 0 mm 2 mps 718 mmHg 37%
    09:00 +24°C° 0 mm 2 mps 718 mmHg 32%
    10:00 +26°C° 0 mm 2 mps 718 mmHg 27%
    11:00 +29°C° 0 mm 2 mps 718 mmHg 21%
    12:00 +30°C° 0 mm 2 mps 718 mmHg 20%
    13:00 +31°C° 0 mm 2 mps 717 mmHg 18%
    14:00 +32°C° 0 mm 1 mps 716 mmHg 16%
    15:00 +31°C° 0 mm 1 mps 716 mmHg 19%
    16:00 +31°C° 0 mm 1 mps 715 mmHg 21%
    17:00 +30°C° 0 mm 1 mps 715 mmHg 23%
    18:00 +28°C° 0 mm 1 mps 715 mmHg 25%
    19:00 +25°C° 0 mm 1 mps 715 mmHg 27%
    20:00 +21°C° 0 mm 2 mps 715 mmHg 28%
    21:00 +21°C° 0 mm 2 mps 715 mmHg 30%
    22:00 +20°C° 0 mm 2 mps 715 mmHg 32%
    23:00 +20°C° 0 mm 3 mps 715 mmHg 33%

    Day after tomorrow, 28 February, Friday

    Time Temperature Precipitation Wind Pressure Humidity
    00:00 +19°C° 0 mm 3 mps 715 mmHg 35%
    01:00 +19°C° 0 mm 3 mps 714 mmHg 37%
    02:00 +18°C° 0 mm 3 mps 714 mmHg 39%
    03:00 +18°C° 0 mm 3 mps 714 mmHg 40%
    04:00 +17°C° 0 mm 3 mps 714 mmHg 41%
    05:00 +17°C° 0 mm 3 mps 714 mmHg 42%
    06:00 +18°C° 0 mm 3 mps 714 mmHg 40%
    07:00 +20°C° 0 mm 3 mps 715 mmHg 38%
    08:00 +21°C° 0 mm 3 mps 716 mmHg 36%
    09:00 +25°C° 0 mm 3 mps 716 mmHg 31%
    10:00 +27°C° 0 mm 4 mps 716 mmHg 26%
    11:00 +30°C° 0 mm 4 mps 717 mmHg 21%
    12:00 +32°C° 0 mm 4 mps 716 mmHg 20%
    13:00 +33°C° 0 mm 4 mps 715 mmHg 18%
    14:00 +34°C° 0 mm 4 mps 714 mmHg 17%
    15:00 +33°C° 0 mm 4 mps 714 mmHg 18%
    16:00 +32°C° 0 mm 4 mps 713 mmHg 20%
    17:00 +30°C° 0 mm 4 mps 713 mmHg 21%
    18:00 +29°C° 0 mm 3 mps 713 mmHg 23%
    19:00 +27°C° 0 mm 3 mps 713 mmHg 25%
    20:00 +25°C° 0 mm 3 mps 714 mmHg 26%
    21:00 +24°C° 0 mm 3 mps 714 mmHg 28%
    22:00 +24°C° 0 mm 3 mps 714 mmHg 29%
    23:00 +22°C° 0 mm 3 mps 714 mmHg 31%

    29 February, Saturday

    Time Temperature Precipitation Wind Pressure Humidity
    00:00 +21°C° 0 mm 3 mps 713 mmHg 34%
    01:00 +20°C° 0 mm 3 mps 713 mmHg 38%
    02:00 +19°C° 0 mm 3 mps 713 mmHg 42%
    03:00 +18°C° 0.1 mm 3 mps 713 mmHg 46%
    04:00 +18°C° 0.1 mm 3 mps 713 mmHg 51%
    05:00 +17°C° 0.1 mm 3 mps 713 mmHg 55%
    06:00 +18°C° 0 mm 3 mps 714 mmHg 52%
    07:00 +20°C° 0 mm 3 mps 714 mmHg 48%
    08:00 +21°C° 0 mm 3 mps 715 mmHg 45%
    09:00 +25°C° 0 mm 4 mps 715 mmHg 37%
    10:00 +27°C° 0 mm 4 mps 715 mmHg 30%
    11:00 +30°C° 0 mm 5 mps 716 mmHg 23%
    12:00 +32°C° 0 mm 4 mps 715 mmHg 21%
    13:00 +33°C° 0 mm 4 mps 714 mmHg 19%
    14:00 +34°C° 0 mm 3 mps 713 mmHg 17%
    15:00 +33°C° 0 mm 3 mps 713 mmHg 17%
    16:00 +33°C° 0 mm 3 mps 712 mmHg 18%
    17:00 +31°C° 0 mm 3 mps 712 mmHg 18%
    18:00 +28°C° 0 mm 2 mps 712 mmHg 21%
    19:00 +26°C° 0 mm 1 mps 712 mmHg 25%
    20:00 +23°C° 0 mm 1 mps 712 mmHg 28%
    21:00 +22°C° 0 mm 1 mps 713 mmHg 30%
    22:00 +22°C° 0 mm 1 mps 713 mmHg 32%
    23:00 +20°C° 0 mm 2 mps 713 mmHg 35%

    1 March, Sunday

    Time Temperature Precipitation Wind Pressure Humidity
    00:00 +20°C° 0 mm 2 mps 713 mmHg 40%
    01:00 +19°C° 0 mm 2 mps 713 mmHg 46%
    02:00 +19°C° 0 mm 3 mps 713 mmHg 51%
    03:00 +18°C° 0 mm 3 mps 713 mmHg 53%
    04:00 +18°C° 0 mm 3 mps 713 mmHg 56%
    05:00 +18°C° 0 mm 3 mps 713 mmHg 58%
    06:00 +19°C° 0 mm 3 mps 713 mmHg 56%
    07:00 +20°C° 0 mm 3 mps 714 mmHg 54%
    08:00 +21°C° 0 mm 3 mps 715 mmHg 52%
    09:00 +24°C° 0 mm 3 mps 715 mmHg 45%
    10:00 +26°C° 0 mm 3 mps 715 mmHg 38%
    11:00 +29°C° 0 mm 3 mps 715 mmHg 30%
    12:00 +30°C° 0 mm 2 mps 715 mmHg 26%
    13:00 +31°C° 0 mm 2 mps 714 mmHg 22%
    14:00 +32°C° 0 mm 2 mps 714 mmHg 18%
    15:00 +31°C° 0 mm 2 mps 713 mmHg 18%
    16:00 +31°C° 0 mm 2 mps 713 mmHg 18%
    17:00 +31°C° 0 mm 3 mps 713 mmHg 18%
    18:00 +28°C° 0 mm 3 mps 713 mmHg 22%
    19:00 +26°C° 0 mm 3 mps 713 mmHg 26%
    20:00 +24°C° 0 mm 3 mps 713 mmHg 30%
    21:00 +22°C° 0 mm 3 mps 713 mmHg 36%
    22:00 +21°C° 0 mm 3 mps 714 mmHg 42%
    23:00 +21°C° 0 mm 4 mps 714 mmHg 48%

    2 March, Monday

    Time Temperature Precipitation Wind Pressure Humidity
    00:00 +20°C° 0 mm 3 mps 714 mmHg 52%
    01:00 +19°C° 0 mm 3 mps 714 mmHg 55%
    02:00 +18°C° 0 mm 2 mps 713 mmHg 59%
    03:00 +18°C° 0 mm 2 mps 713 mmHg 61%
    04:00 +17°C° 0 mm 2 mps 713 mmHg 64%
    05:00 +18°C° 0 mm 1 mps 713 mmHg 66%
    06:00 +20°C° 0 mm 1 mps 714 mmHg 60%
    07:00 +21°C° 0 mm 1 mps 714 mmHg 53%
    08:00 +23°C° 0 mm 1 mps 715 mmHg 46%
    09:00 +26°C° 0 mm 1 mps 715 mmHg 39%
    10:00 +28°C° 0 mm 1 mps 716 mmHg 31%
    11:00 +28°C° 0 mm 0 mps 716 mmHg 24%
    12:00 +31°C° 0 mm 1 mps 715 mmHg 21%
    13:00 +31°C° 0 mm 2 mps 715 mmHg 19%
    14:00 +33°C° 0 mm 3 mps 714 mmHg 17%
    15:00 +33°C° 0 mm 3 mps 714 mmHg 17%
    16:00 +31°C° 0 mm 3 mps 713 mmHg 18%
    17:00 +31°C° 0 mm 3 mps 713 mmHg 18%
    18:00 +28°C° 0 mm 3 mps 713 mmHg 21%
    19:00 +26°C° 0 mm 3 mps 713 mmHg 23%
    20:00 +23°C° 0 mm 2 mps 714 mmHg 26%
    21:00 +21°C° 0 mm 2 mps 714 mmHg 28%
    22:00 +20°C° 0 mm 2 mps 714 mmHg 30%
    23:00 +20°C° 0 mm 1 mps 714 mmHg 32%
    Show more